Hourly Data Report for June 12, 2019

MIRAMICHI RCS
NEW BRUNSWICK
Current Station Operator: ECCC - MSC

47°00'34.000" N
65°27'54.000" W
33.00 m
8100989
71744
ACQ

Download Data

Hourly Data (June 2019)
Hourly Data Report for June 12, 2019
TIME
LST
Temp Definition
°C
Dew Point Definition
°C
Rel Hum Definition
%
Precip. Amount Definition
mm

Wind Dir Definition
10's deg

Wind Spd Definition
km/h
Visibility Definition
km
Stn Press Definition
kPa
Hmdx Definition


Wind Chill Definition


Weather Definition


00:00 12.6 10.2 85 0.0 31 22   100.33     LegendNANA
01:00 10.7 7.9 83 0.0 30 15   100.37     LegendNANA
02:00 10.3 7.0 80 0.0 30 13   100.40     LegendNANA
03:00 9.4 6.5 82 0.0 28 10   100.44     LegendNANA
04:00 8.4 5.9 84 0.0 27 9   100.51     LegendNANA
05:00 8.8 5.3 79 0.2 27 13   100.59     LegendNANA
06:00 9.7 5.1 73 0.0 27 15   100.63     LegendNANA
07:00 11.5 5.3 66 0.0 28 17   100.71     LegendNANA
08:00 13.2 5.1 58 0.0 29 20   100.77     LegendNANA
09:00 15.0 3.3 45 0.0 29 25   100.75     LegendNANA
10:00 16.9 2.0 37 0.0 29 28   100.79     LegendNANA
11:00 18.3 2.6 35 0.0 29 24   100.77     LegendNANA
12:00 19.8 2.2 31 0.0 28 30   100.78     LegendNANA
13:00 20.9 2.6 30 0.0 29 35   100.77     LegendNANA
14:00 22.4 4.0 30 0.0 29 30   100.77     LegendNANA
15:00 22.7 3.6 29 0.0 28 33   100.78     LegendNANA
16:00 22.9 4.2 29 0.0 30 30   100.82     LegendNANA
17:00 22.7 4.3 30 0.0 28 26   100.85     LegendNANA
18:00 22.7 4.4 30 0.0 28 26   100.88     LegendNANA
19:00 22.6 4.5 31 0.0 28 26   100.93     LegendNANA
20:00 20.3 6.1 39 0.0 25 9   101.03     LegendNANA
21:00 18.0 6.5 47 0.0 25 11   101.09     LegendNANA
22:00 16.1 6.5 53 0.0 24 8   101.17     LegendNANA
23:00 15.4 6.6 55 0.0 24 12   101.23     LegendNANA

Notes on Data Quality.

Legend

  • E = Estimated
  • M = Missing
  • NA = Not Available*
  • [empty] = Indicates an unobserved value
Date modified: